Wind_Speed
16 17 18 18 19 20 20 20 21 21 21 21 21 20 20 19 19 19 19 18 18 18 18 18 18 17 18 18 18 18 17 17 17 18 18 19 18 18
18 19 20 20 21 21 21 22 22 23 22 22 21 22 21 21 21 20 20 19 19 19 18 19 19 19 19 19 20 20 20 19 19 19 19 20 20 20
20 21 21 22 23 23 23 23 23 23 23 23 22 22 22 22 21 21 21 21 21 20 20 20 20 20 20 21 21 21 21 21 21 21 21 21 22 22
21 22 22 23 23 24 24 24 23 22 22 22 23 23 22 23 23 22 22 23 22 22 21 21 21 21 22 22 22 23 23 24 24 24 24 24 24 25
22 23 23 24 24 24 24 24 23 22 22 22 23 24 23 23 24 24 23 23 23 23 23 23 23 23 24 23 24 24 24 25 25 25 26 26 26 26
24 24 24 24 25 25 25 24 23 23 23 23 23 24 24 24 25 25 25 25 25 25 25 25 25 25 25 25 26 26 26 27 27 27 28 28 28 28
25 25 25 25 26 25 25 24 23 23 23 23 24 24 24 25 25 26 26 27 26 26 26 27 27 27 27 27 28 28 28 29 29 29 29 29 29 30
25 25 25 25 26 25 25 24 23 24 24 24 24 25 25 26 26 27 27 28 28 28 27 28 28 28 29 29 30 30 30 29 30 29 29 30 30 30
26 26 25 25 25 25 24 24 24 24 25 25 25 26 27 27 27 28 28 28 29 29 29 29 30 30 30 31 31 31 31 31 30 30 30 31 32 32
27 26 26 26 25 24 24 25 25 25 26 26 26 27 27 28 29 29 29 29 30 30 30 30 31 31 31 31 31 31 31 32 32 32 32 32 33 33
27 27 26 26 26 25 25 26 26 27 27 27 28 28 28 29 29 30 30 31 31 31 31 31 31 31 31 31 30 30 30 31 31 32 32 32 32 33
27 27 27 26 26 26 26 27 27 28 28 29 29 29 29 29 29 29 30 30 31 31 31 31 32 32 32 31 31 31 31 31 31 31 32 32 31 32
27 27 26 26 26 27 27 27 28 28 28 29 29 29 29 30 30 30 30 30 31 31 32 32 32 32 32 32 33 33 33 32 33 33 32 32 32 31
26 26 26 26 26 27 28 28 28 29 29 30 30 30 30 30 30 30 31 31 32 32 33 33 32 33 34 33 34 34 34 34 34 33 32 32 32 32
25 25 25 26 27 28 29 29 30 30 30 30 30 31 31 31 31 31 32 33 33 33 33 33 34 34 34 34 34 34 35 34 34 33 33 32 32 32
26 25 25 26 27 29 30 30 30 31 31 30 30 30 31 32 32 33 33 33 33 33 33 33 33 33 34 34 34 34 33 33 32 32 32 32 32 33
26 26 26 27 28 29 30 29 30 30 31 31 31 31 32 32 33 33 33 34 33 33 32 32 32 33 34 34 34 33 32 31 31 31 31 31 31 32
27 27 27 28 29 30 30 30 30 31 31 30 31 31 32 32 33 33 33 32 32 31 31 31 31 32 33 32 31 31 30 30 30 30 31 30 30 30
28 28 29 29 29 30 31 31 31 31 31 31 31 31 31 32 32 32 32 31 31 31 31 31 31 31 31 31 30 30 29 28 28 28 29 29 29 30
28 29 29 30 30 30 31 31 32 32 31 31 31 31 32 32 31 31 31 31 31 31 31 31 31 30 31 31 30 30 31 30 29 29 28 28 28 28
29 30 30 30 30 31 31 32 32 32 31 31 31 32 32 32 31 31 31 31 31 31 31 31 31 31 31 31 30 30 31 30 30 29 29 29 28 28
30 30 31 31 31 31 32 32 33 33 33 33 32 32 32 32 32 31 31 31 31 31 31 31 31 31 31 31 30 30 30 29 29 29 29 28 27 27
31 30 31 32 32 32 32 33 33 34 34 33 32 32 32 31 31 32 32 32 31 31 31 31 31 31 30 29 29 29 29 29 29 29 29 28 28 27
Wind_Direction
298 298 298 298 299 300 299 298 296 295 292 290 288 282 279 277 276 274 274 270 269 270 272 271 270 271 272 270 267 265 265 265 264 264 263 262 259 258
296 296 296 297 297 297 298 297 295 292 289 286 285 282 278 276 276 274 273 270 269 270 273 273 271 270 270 270 268 266 266 266 265 265 266 262 261 260
296 296 295 295 295 296 296 296 295 292 289 286 283 282 277 277 277 276 274 272 271 268 271 273 273 271 269 268 268 266 266 267 266 266 266 265 263 262
295 296 295 294 295 294 294 294 294 292 290 286 283 281 279 276 275 276 274 272 274 271 270 272 271 271 270 269 268 266 265 267 266 265 265 265 264 262
293 294 294 293 294 293 292 292 292 292 289 287 284 281 279 276 274 275 275 273 273 274 271 272 272 272 272 271 271 269 267 267 266 265 264 263 264 263
291 292 292 292 293 293 291 291 291 291 289 286 284 282 280 278 275 275 274 274 273 274 272 271 271 271 272 272 272 271 269 267 265 264 264 264 264 263
291 291 292 291 292 292 291 292 293 292 291 288 286 283 280 279 277 276 276 276 275 275 274 273 273 271 272 272 273 274 272 270 267 265 264 264 264 263
289 290 292 292 292 293 292 292 292 291 290 290 287 286 282 280 278 277 277 277 276 275 274 274 273 272 272 273 273 275 274 272 269 267 265 263 264 262
289 290 290 290 291 292 293 292 292 291 290 289 288 288 285 283 281 279 278 278 278 278 276 275 275 274 273 274 274 274 273 272 271 269 267 265 264 262
288 290 290 289 290 291 292 293 292 292 292 290 290 289 288 287 284 281 279 277 277 277 276 276 275 275 275 274 275 275 273 272 270 269 268 265 263 262
288 287 289 289 289 291 292 292 292 292 292 291 290 290 288 287 285 282 280 279 279 278 277 278 277 277 276 276 274 274 273 273 270 269 268 266 264 263
289 287 287 289 289 289 290 291 292 292 291 290 289 289 288 287 286 284 281 280 279 278 278 279 279 279 279 276 275 274 272 272 270 268 267 265 264 263
289 287 288 288 289 289 289 290 291 291 291 290 289 288 288 288 287 286 284 282 281 279 279 278 279 279 280 278 276 276 274 273 271 269 268 267 265 264
291 289 289 289 289 290 290 291 290 291 291 291 290 289 289 287 286 285 284 283 282 281 280 280 279 279 279 279 278 277 274 273 271 270 269 267 266 264
292 292 291 290 289 291 292 291 291 291 291 291 290 289 288 287 286 285 284 284 283 282 281 280 280 281 280 279 279 277 275 274 270 267 266 265 265 264
289 290 290 290 290 292 292 293 293 292 291 290 289 288 288 287 286 285 285 285 285 283 282 281 280 280 280 281 280 277 275 274 271 268 265 264 264 264
288 290 290 291 292 293 293 294 295 295 293 291 289 289 289 287 286 286 285 285 285 284 283 281 279 279 280 281 279 275 272 271 269 267 266 264 262 262
288 288 292 293 292 292 293 294 295 296 295 293 292 291 290 289 288 287 286 285 284 284 283 281 280 280 280 279 277 274 271 269 267 266 267 265 263 262
289 290 292 293 293 293 294 295 295 296 296 295 294 292 291 291 290 288 285 284 283 283 283 283 282 281 280 279 277 274 271 269 268 267 267 266 264 262
289 290 292 293 294 295 296 295 296 297 297 296 295 293 292 292 290 288 287 285 284 284 283 283 282 281 279 278 276 274 271 271 270 268 267 266 264 263
290 291 292 294 295 295 295 296 297 297 297 297 296 294 293 292 290 288 287 285 285 284 283 283 282 280 279 278 275 272 272 272 270 268 267 264 262 262
292 292 292 293 293 293 293 294 296 297 297 296 295 294 293 292 290 288 286 285 285 285 283 283 282 279 278 277 274 272 271 271 270 268 264 262 261 260
292 290 291 293 292 293 293 294 295 295 296 295 294 294 294 292 290 288 287 285 285 284 283 282 281 279 278 276 275 273 271 270 269 267 264 261 261 261
Height
5865 5863 5862 5860 5858 5856 5854 5852 5851 5849 5847 5845 5844 5842 5841 5840 5840 5839 5839 5839 5839 5839 5838 5838 5838 5837 5837 5837 5837 5838 5838 5838 5838 5838 5839 5839 5841 5841
5860 5859 5857 5855 5853 5851 5849 5847 5845 5843 5841 5840 5838 5837 5836 5835 5834 5834 5834 5834 5834 5833 5833 5833 5833 5832 5832 5832 5832 5832 5833 5833 5834 5834 5834 5834 5835 5836
5855 5853 5852 5850 5848 5846 5844 5841 5839 5837 5835 5834 5832 5831 5830 5829 5828 5828 5828 5828 5828 5828 5827 5827 5827 5827 5826 5826 5826 5827 5827 5828 5828 5828 5829 5829 5829 5830
5850 5848 5846 5844 5842 5840 5838 5836 5833 5831 5829 5828 5826 5825 5824 5823 5823 5822 5822 5822 5821 5821 5821 5821 5821 5821 5820 5820 5820 5820 5821 5821 5821 5822 5822 5822 5823 5823
5844 5842 5840 5838 5836 5834 5831 5829 5827 5825 5823 5822 5820 5819 5818 5817 5817 5816 5815 5815 5815 5814 5815 5815 5814 5814 5814 5814 5813 5813 5814 5814 5814 5815 5815 5815 5815 5816
5838 5836 5833 5831 5829 5827 5825 5822 5820 5819 5817 5815 5814 5813 5812 5810 5810 5809 5809 5808 5808 5807 5807 5807 5807 5807 5807 5806 5806 5806 5806 5806 5806 5806 5807 5807 5807 5808
5832 5830 5827 5825 5823 5820 5818 5816 5814 5812 5810 5808 5807 5806 5805 5804 5803 5802 5801 5801 5800 5800 5799 5799 5799 5799 5798 5798 5798 5797 5797 5797 5797 5798 5798 5798 5799 5799
5825 5823 5820 5818 5816 5814 5811 5809 5807 5805 5803 5802 5800 5799 5798 5797 5795 5794 5793 5793 5793 5793 5791 5791 5790 5790 5789 5790 5789 5789 5788 5788 5788 5788 5789 5789 5790 5790
5817 5815 5813 5811 5809 5807 5805 5803 5801 5799 5797 5795 5793 5792 5790 5789 5788 5787 5786 5785 5784 5784 5783 5782 5781 5780 5780 5779 5779 5779 5778 5778 5778 5779 5779 5779 5779 5780
5810 5808 5806 5804 5801 5799 5797 5796 5794 5792 5790 5788 5786 5785 5783 5781 5780 5778 5777 5777 5776 5775 5774 5773 5772 5771 5770 5769 5769 5768 5768 5768 5768 5768 5768 5768 5769 5769
5802 5800 5798 5796 5795 5792 5790 5788 5786 5784 5782 5780 5778 5776 5774 5773 5771 5769 5768 5767 5767 5766 5764 5763 5763 5761 5760 5760 5759 5759 5758 5757 5757 5757 5757 5757 5758 5758
5794 5792 5790 5789 5787 5785 5783 5781 5779 5777 5775 5773 5770 5768 5766 5764 5762 5761 5759 5758 5757 5756 5755 5754 5752 5751 5751 5750 5749 5748 5747 5747 5747 5746 5746 5747 5747 5747
5786 5784 5782 5780 5779 5777 5775 5773 5771 5768 5766 5764 5762 5760 5758 5756 5754 5752 5750 5749 5748 5747 5746 5744 5743 5741 5740 5739 5738 5737 5736 5736 5735 5735 5735 5736 5736 5737
5778 5776 5774 5773 5771 5769 5767 5765 5762 5760 5758 5755 5753 5751 5749 5747 5745 5743 5741 5740 5738 5737 5735 5734 5732 5731 5730 5729 5728 5726 5725 5725 5724 5724 5724 5724 5725 5725
5771 5769 5767 5765 5763 5761 5759 5756 5754 5751 5749 5746 5744 5742 5739 5737 5735 5733 5731 5729 5728 5726 5725 5723 5722 5720 5718 5717 5716 5715 5714 5713 5712 5712 5712 5713 5713 5714
5763 5761 5759 5757 5755 5753 5750 5748 5745 5742 5739 5737 5734 5732 5730 5727 5725 5723 5721 5719 5717 5716 5714 5713 5711 5709 5707 5706 5705 5704 5702 5702 5701 5701 5701 5702 5702 5703
5756 5753 5751 5749 5746 5744 5741 5739 5736 5733 5730 5727 5725 5722 5720 5717 5715 5712 5710 5708 5706 5705 5703 5702 5700 5698 5697 5695 5694 5693 5692 5691 5691 5691 5691 5691 5692 5692
5747 5745 5743 5741 5738 5736 5733 5730 5727 5724 5721 5718 5715 5712 5710 5707 5704 5702 5700 5698 5696 5694 5693 5691 5690 5688 5687 5685 5683 5682 5682 5681 5680 5681 5681 5681 5681 5682
5739 5737 5735 5733 5730 5727 5724 5721 5718 5715 5712 5708 5705 5702 5700 5697 5694 5691 5689 5687 5685 5684 5683 5681 5679 5677 5676 5675 5674 5672 5671 5670 5670 5670 5671 5671 5671 5672
5731 5729 5727 5724 5721 5718 5715 5712 5709 5706 5702 5699 5695 5692 5690 5687 5684 5681 5679 5677 5675 5674 5672 5670 5669 5667 5666 5664 5663 5662 5661 5661 5661 5661 5661 5661 5661 5662
5722 5720 5717 5715 5712 5709 5706 5703 5700 5697 5693 5689 5686 5683 5680 5677 5674 5671 5669 5667 5665 5663 5661 5660 5658 5657 5655 5654 5653 5652 5651 5650 5651 5651 5651 5651 5652 5653
5713 5711 5708 5705 5702 5700 5697 5694 5690 5687 5684 5680 5676 5673 5670 5667 5664 5661 5659 5657 5655 5652 5650 5649 5647 5646 5644 5643 5642 5641 5641 5640 5640 5641 5641 5642 5642 5643
5704 5702 5699 5696 5693 5690 5687 5684 5681 5677 5674 5670 5667 5663 5660 5657 5654 5651 5649 5646 5644 5642 5640 5638 5636 5635 5633 5632 5631 5631 5630 5630 5631 5631 5632 5633 5633 5634